Weather History for Clyde, NU

Change the Weather History Date:

Monday, July 22, 2013

  Actual Average Record
Temperature  
Mean Temperature 37 °F -  
Max Temperature 42 °F 45 °F 62 °F (2010)
Min Temperature 32 °F 33 °F 32 °F (1998)
Degree Days  
Heating Degree Days 28    
Moisture  
Dew Point 33 °F    
Average Humidity 90    
Maximum Humidity 100    
Minimum Humidity 68    
Precipitation  
Precipitation 0.00 in 0.04 in - ()
Sea Level Pressure  
Sea Level Pressure 30.05 in    
Wind  
Wind Speed 5 mph ()    
Max Wind Speed 14 mph    
Max Gust Speed -    
Visibility 7.2 miles    
Events      
Averages and records for this station are not official NWS values.
T = Trace of Precipitation, MM = Missing Value Source: Averaged Metar Reports

Daily Weather History Graph

Daily Weather History Graph

Search for Another Location

Airport:

Trip Planner

Search our weather history database for the weather conditions in past years. The results will help you decide how hot, cold, wet, or windy it might be!

Date:

Astronomy

Jul. 22, 2013 Rise Set
Actual Time 2:12 AM ADT 1:08 AM ADT
Civil Twilight Sun does not rise Sun does not rise
Nautical Twilight Sun does not rise Sun does not rise
Astronomical Twilight Sun does not rise Sun does not rise
Moon 11:00 PM ADT (7/22) 3:05 AM ADT (7/22)
Length of Visible Light 24h 00m
Length of Day
22h 55m
Full, 100% of the Moon is Illuminated
Jul 22
Full
Jul 22
Full
Jul 29
Last Quarter
Aug 6
New
Aug 14
First Quarter

Hourly Weather History & Observations

Time (ADT) Temp. Windchill Dew Point Humidity Pressure Visibility Wind Dir Wind Speed Gust Speed Precip Events Conditions
12:00 AM 34 °F - 33 °F 95% 30.06 in 10 mi East 4.6 mph - -   Overcast
12:00 AM 33.8 °F 30.8 °F 33.8 °F 100% 30.06 in 9.0 mi East 3.5 mph - N/A   Overcast
1:00 AM 33.8 °F 29.6 °F 32.0 °F 93% 30.05 in 9.0 mi NE 4.6 mph - N/A   Overcast
2:00 AM 33.8 °F - 32.0 °F 93% 30.05 in 9.0 mi Variable 2.3 mph - N/A   Overcast
3:00 AM 33 °F - 32 °F 95% 30.05 in 10 mi NE 1.2 mph - -   Overcast
3:00 AM 33.8 °F - 32.0 °F 93% 30.05 in 9.0 mi Calm Calm - N/A   Overcast
3:28 AM 33.8 °F 30.8 °F 32.0 °F 93% 30.05 in 5.0 mi NNE 3.5 mph - N/A   Overcast
3:33 AM 33.8 °F 28.6 °F 32.0 °F 93% 30.05 in 2.5 mi NNW 5.8 mph - N/A   Overcast
3:47 AM 33.8 °F 28.6 °F 33.8 °F 100% 30.05 in 3.0 mi NNE 5.8 mph - N/A   Overcast
3:50 AM 33.8 °F 28.6 °F 32.0 °F 93% 30.05 in 6.0 mi North 5.8 mph - N/A   Overcast
4:00 AM 33.8 °F 28.6 °F 32.0 °F 93% 30.05 in 9.0 mi North 5.8 mph - N/A   Overcast
4:31 AM 33.8 °F 29.6 °F 32.0 °F 93% 30.05 in 5.0 mi NNW 4.6 mph - N/A   Overcast
4:36 AM 33.8 °F 27.0 °F 32.0 °F 93% 30.05 in 6.0 mi NNW 8.1 mph - N/A   Overcast
5:00 AM 33.8 °F 27.0 °F 32.0 °F 93% 30.05 in 8.0 mi NNW 8.1 mph - N/A   Overcast
5:12 AM 33.8 °F 30.8 °F 32.0 °F 93% 30.05 in 5.0 mi North 3.5 mph - N/A   Overcast
5:23 AM 33.8 °F 28.6 °F 32.0 °F 93% 30.05 in 6.0 mi NNW 5.8 mph - N/A   Overcast
5:39 AM 33.8 °F 30.8 °F 32.0 °F 93% 30.05 in 5.0 mi NW 3.5 mph - N/A   Overcast
6:00 AM 34 °F - 33 °F 95% 30.05 in 4 mi NNW 5.8 mph - -   Mist
6:00 AM 33.8 °F 27.7 °F 33.8 °F 100% 30.05 in 4.0 mi North 6.9 mph - N/A   Overcast
6:04 AM 33.8 °F 28.6 °F 32.0 °F 93% 30.05 in 7.0 mi NNW 5.8 mph - N/A   Overcast
7:00 AM 33.8 °F 28.6 °F 32.0 °F 93% 30.05 in 9.0 mi NNW 5.8 mph - N/A   Overcast
7:15 AM 33.8 °F 27.7 °F 32.0 °F 93% 30.05 in 9.0 mi NNW 6.9 mph - N/A   Overcast
8:00 AM 35.6 °F 30.7 °F 32.0 °F 87% 30.05 in 9.0 mi NNW 5.8 mph - N/A   Overcast
8:59 AM 35.6 °F 29.2 °F 32.0 °F 87% 30.05 in 9.0 mi NNW 8.1 mph - N/A   Overcast
9:00 AM 36 °F - 33 °F 82% 30.06 in 10 mi NNW 8.1 mph - -   Overcast
9:00 AM 35.6 °F 28.6 °F 32.0 °F 87% 30.05 in 9.0 mi NNW 9.2 mph - N/A   Overcast
10:00 AM 37.4 °F 31.4 °F 32.0 °F 81% 30.05 in 15.0 mi NW 8.1 mph - N/A   Mostly Cloudy
11:00 AM 41.0 °F 35.8 °F 33.8 °F 76% 30.04 in 25.0 mi North 8.1 mph - N/A   Scattered Clouds
12:00 PM 41 °F - 34 °F 68% 30.04 in 10 mi North 9.2 mph - -  
12:00 PM 41.0 °F 35.2 °F 33.8 °F 76% 30.04 in 25.0 mi North 9.2 mph - N/A   Scattered Clouds
1:00 PM 42.8 °F 37.0 °F 35.6 °F 76% 30.04 in 25.0 mi North 10.4 mph - N/A   Scattered Clouds
2:00 PM 41.0 °F 33.9 °F 35.6 °F 81% 30.04 in 25.0 mi North 12.7 mph - N/A   Scattered Clouds
2:43 PM 41.0 °F 33.5 °F 35.6 °F 81% 30.04 in 15.0 mi NNE 13.8 mph - N/A   Scattered Clouds
3:00 PM 40 °F - 35 °F 76% 30.04 in 10 mi North 12.7 mph - -  
3:00 PM 39.2 °F 31.6 °F 35.6 °F 87% 30.04 in 15.0 mi NNE 12.7 mph - N/A   Scattered Clouds
4:00 PM 41.0 °F 33.9 °F 33.8 °F 76% 30.04 in 25.0 mi North 12.7 mph - N/A   Scattered Clouds
5:00 PM 41.0 °F 34.7 °F 35.6 °F 81% 30.04 in 25.0 mi North 10.4 mph - N/A   Scattered Clouds
6:00 PM 40 °F - 35 °F 76% 30.05 in 10 mi NNE 10.4 mph - -  
6:00 PM 39.2 °F 32.5 °F 35.6 °F 87% 30.04 in 25.0 mi NNE 10.4 mph - N/A   Mostly Cloudy
7:00 PM 39.2 °F 33.0 °F 33.8 °F 81% 30.05 in 25.0 mi NNE 9.2 mph - N/A   Scattered Clouds
8:00 PM 37.4 °F 31.4 °F 33.8 °F 87% 30.06 in 25.0 mi NNE 8.1 mph - N/A   Mostly Cloudy
9:00 PM 37 °F - 34 °F 83% 30.06 in 10 mi NNE 5.8 mph - -  
9:00 PM 37.4 °F 32.1 °F 33.8 °F 87% 30.06 in 9.0 mi NNE 6.9 mph - N/A   Mostly Cloudy
10:00 PM 33.8 °F 27.7 °F 32.0 °F 93% 30.06 in 9.0 mi North 6.9 mph - N/A   Overcast
10:17 PM 33.8 °F 29.6 °F 32.0 °F 93% 30.06 in 5.0 mi North 4.6 mph - N/A   Overcast
10:19 PM 33.8 °F 28.6 °F 32.0 °F 93% 30.06 in 5.0 mi North 5.8 mph - N/A   Overcast
10:30 PM 33.8 °F 29.6 °F 32.0 °F 93% 30.06 in 7.0 mi NNE 4.6 mph - N/A   Overcast
10:34 PM 33.8 °F 28.6 °F 32.0 °F 93% 30.06 in 5.0 mi NNE 5.8 mph - N/A   Overcast
10:42 PM 32.0 °F 26.4 °F 32.0 °F 100% 30.06 in 2.0 mi North 5.8 mph - N/A   Overcast
10:52 PM 32.0 °F 27.5 °F 32.0 °F 100% 30.06 in 3.0 mi NNE 4.6 mph - N/A   Overcast
11:00 PM 32.0 °F 26.4 °F 32.0 °F 100% 30.06 in 6.0 mi North 5.8 mph - N/A   Overcast
11:03 PM 32.0 °F 27.5 °F 32.0 °F 100% 30.06 in 4.0 mi North 4.6 mph - N/A   Overcast
11:09 PM 32.0 °F 27.5 °F 32.0 °F 100% 30.06 in 2.5 mi North 4.6 mph - N/A   Overcast
11:14 PM 32.0 °F 28.7 °F 32.0 °F 100% 30.06 in 3.0 mi North 3.5 mph - N/A   Overcast
11:16 PM 32.0 °F 28.7 °F 32.0 °F 100% 30.06 in 2.0 mi North 3.5 mph - N/A   Overcast
11:25 PM 32.0 °F 28.7 °F 32.0 °F 100% 30.06 in 3.0 mi NNE 3.5 mph - N/A   Mostly Cloudy
11:37 PM 32.0 °F 28.7 °F 32.0 °F 100% 30.07 in 6.0 mi North 3.5 mph - N/A   Mostly Cloudy
11:39 PM 32.0 °F 28.7 °F 32.0 °F 100% 30.07 in 9.0 mi North 3.5 mph - N/A   Scattered Clouds